GW1686 Weather Reports


time (UTC)temp
F
wind
direction
speed
knots
gust
knots
rain 1hr
in
rain 24hr
in
rain mn
in
humidity
%
barometer
mb
20260901190105 91 0 0.9 3.5 0.00 0.77 0.00 66 1011.3
20260901184546 91 0 0.9 3.5 0.00 0.77 0.00 66 1011.5
20260901183041 91 13 0.9 4.3 0.00 0.77 0.00 66 1011.8
20260901181550 90 0 0.9 7.0 0.00 0.77 0.00 69 1012.1
20260901180047 90 0 0.0 2.6 0.00 0.77 0.00 69 1012.4
20260901174542 90 0 0.9 2.6 0.00 0.77 0.00 69 1012.4
20260901173052 90 70 0.0 5.2 0.00 0.77 0.00 71 1012.5
20260901171547 89 91 0.0 4.3 0.00 0.77 0.00 71 1012.5
20260901170053 89 38 0.9 2.6 0.00 0.77 0.00 72 1012.7
20260901164551 88 87 0.0 2.6 0.00 0.77 0.00 75 1013.0
20260901163048 87 0 0.0 3.5 0.00 0.77 0.00 78 1013.2
20260901161609 86 57 0.0 3.5 0.00 0.77 0.00 80 1013.4
20260901160053 86 33 0.0 3.5 0.00 0.77 0.00 79 1013.5
20260901154550 85 355 0.0 2.6 0.00 0.77 0.00 82 1013.6
20260901153049 84 0 0.0 0.9 0.00 0.77 0.00 84 1013.7
20260901151558 84 0 0.0 1.7 0.00 0.77 0.00 84 1013.6
20260901150048 84 0 0.0 1.7 0.00 0.77 0.00 85 1013.5
20260901144550 82 0 0.0 0.0 0.00 0.77 0.00 87 1013.4
20260901143059 82 0 0.0 0.0 0.00 0.77 0.00 88 1013.3
20260901141606 82 0 0.0 0.9 0.00 0.77 0.00 89 1013.2
20260901140049 81 0 0.0 0.9 0.00 0.77 0.00 92 1013.2
20260901134553 80 0 0.0 0.0 0.00 0.77 0.00 96 1013.0
20260901133102 79 0 0.0 0.0 0.00 0.77 0.00 97 1012.9
20260901131555 79 0 0.0 0.0 0.00 0.77 0.00 97 1012.9
20260901130052 78 0 0.0 0.0 0.00 0.77 0.00 97 1012.9
20260901124549 78 0 0.0 0.0 0.00 0.77 0.00 97 1012.7
20260901123047 78 0 0.0 0.0 0.00 0.77 0.00 97 1012.7
20260901121554 78 0 0.0 0.0 0.00 0.77 0.00 98 1012.5
20260901120104 77 0 0.0 0.0 0.00 0.77 0.00 97 1012.4
20260901114549 77 0 0.0 0.9 0.00 0.78 0.00 98 1012.4
20260901113052 77 0 0.0 0.0 0.00 0.78 0.00 97 1012.3
20260901111552 77 0 0.0 0.0 0.00 0.78 0.00 97 1012.2
20260901110056 76 0 0.0 0.0 0.00 0.78 0.00 97 1012.0
20260901104551 76 0 0.0 0.0 0.00 0.78 0.00 97 1012.0
20260901103050 76 0 0.0 0.0 0.00 0.78 0.00 97 1011.9
20260901101554 76 0 0.0 0.0 0.00 0.78 0.00 97 1011.9
20260901100049 76 0 0.0 0.0 0.00 0.78 0.00 97 1011.9
20260901094551 76 0 0.0 0.0 0.00 0.78 0.00 97 1011.9
20260901093051 76 0 0.0 0.0 0.00 0.78 0.00 97 1011.8
20260901091559 76 0 0.0 0.0 0.00 0.78 0.00 97 1011.5
20260901090050 76 0 0.0 0.0 0.00 0.78 0.00 97 1011.4
20260901084549 76 0 0.0 0.0 0.00 0.78 0.00 97 1011.2
20260901083051 77 0 0.0 0.0 0.00 0.78 0.00 97 1011.2
20260901081547 77 0 0.0 0.0 0.00 0.78 0.00 97 1011.1
20260901080050 77 0 0.0 0.0 0.00 0.78 0.00 97 1011.3
20260901074550 77 0 0.0 0.0 0.00 0.78 0.00 97 1011.6
20260901073053 77 0 0.0 0.0 0.00 0.78 0.00 97 1011.5
20260901071601 77 0 0.0 0.0 0.00 0.78 0.00 97 1011.6
20260901070049 76 0 0.0 0.0 0.00 0.78 0.00 97 1011.8
20260901064547 76 0 0.0 0.0 0.00 0.78 0.00 97 1011.8
20260901063051 76 0 0.0 0.0 0.00 0.78 0.00 97 1012.0
20260901061555 76 0 0.0 0.0 0.00 0.78 0.00 97 1012.2
20260901060050 76 0 0.0 0.0 0.00 0.78 0.00 97 1012.4
20260901054544 76 0 0.0 0.0 0.00 0.78 0.00 97 1012.7
20260901053051 76 0 0.0 0.0 0.00 0.78 0.00 97 1012.8
20260901051547 76 0 0.0 0.0 0.00 0.78 0.00 97 1013.0
20260901050046 76 0 0.0 0.0 0.00 0.78 0.00 97 1013.1
20260901044550 76 0 0.0 0.0 0.00 0.78 0.00 97 1013.3
20260901043113 76 0 0.0 0.0 0.01 0.78 0.00 97 1013.3
20260901041550 76 0 0.0 0.0 0.01 0.78 0.00 97 1013.4
20260901040055 76 0 0.0 0.0 0.01 0.78 0.00 97 1013.4
20260901034558 76 0 0.0 0.0 0.01 0.78 0.78 97 1013.4
20260901033106 76 0 0.0 0.0 0.00 0.77 0.77 96 1013.4
20260901031605 76 0 0.0 0.0 0.00 0.77 0.77 96 1013.3
20260901030046 76 0 0.0 0.0 0.00 0.77 0.77 96 1013.3
20260901024552 76 0 0.0 0.0 0.00 0.77 0.77 96 1013.2
20260901023057 76 0 0.0 0.0 0.00 0.77 0.77 96 1013.3
20260901021548 77 0 0.0 0.0 0.00 0.77 0.77 96 1013.2
20260901020047 77 0 0.0 0.0 0.00 0.77 0.77 96 1013.1
20260901014600 77 0 0.0 0.0 0.00 0.77 0.77 96 1013.1
20260901013051 77 0 0.0 0.0 0.00 0.77 0.77 96 1013.0
20260901011549 77 0 0.0 0.0 0.00 0.77 0.77 96 1012.9
20260901010049 77 0 0.0 0.0 0.00 0.77 0.77 96 1012.7
20260901004554 77 0 0.0 0.0 0.01 0.77 0.77 95 1012.6
20260901003100 77 0 0.0 0.0 0.01 0.77 0.77 95 1012.3
20260901001603 77 0 0.0 1.7 0.02 0.77 0.77 95 1012.5
20260901000049 78 0 0.0 0.0 0.03 0.77 0.77 95 1012.7
20260831234542 78 0 0.0 1.7 0.13 0.76 0.76 95 1012.7
20260831233051 78 0 0.0 1.7 0.71 0.76 0.76 95 1012.8
20260831231551 78 0 0.0 2.6 0.74 0.75 0.75 95 1012.6
20260831230050 78 11 0.9 2.6 0.73 0.74 0.74 94 1012.7
20260831224556 78 11 1.7 4.3 0.61 0.62 0.62 91 1012.7
20260831223051 80 11 1.7 6.1 0.03 0.04 0.04 87 1012.7
20260831221559 84 45 1.7 7.8 0.00 0.01 0.01 79 1012.5
20260831220047 90 5 2.6 7.0 0.00 0.01 0.01 69 1011.6
20260831214557 89 330 2.6 10.4 0.00 0.45 0.01 70 1011.5
20260831213054 90 324 3.5 9.6 0.00 0.45 0.01 71 1011.4
20260831211546 90 323 2.6 10.4 0.00 0.45 0.01 72 1011.5
20260831210056 90 236 2.6 7.8 0.00 0.45 0.01 72 1011.5
20260831204555 91 346 2.6 7.8 0.00 0.52 0.01 72 1011.7
20260831203100 91 330 2.6 7.8 0.00 0.52 0.01 72 1011.9
20260831201550 90 22 3.5 8.7 0.00 0.52 0.01 72 1011.8
20260831200047 91 23 3.5 10.4 0.00 0.52 0.01 71 1011.9
20260831194558 91 323 1.7 7.0 0.00 0.52 0.01 69 1011.8
20260831193049 90 195 1.7 7.8 0.00 0.52 0.01 70 1011.8
20260831191558 88 260 2.6 7.8 0.00 0.52 0.01 73 1011.9